Location: Peterborough
(44.3091°N, 78.3197°W)
Time: 20:39:09
(UTC-05:00)

Tiros 1 despin weight - Visible Passes

Search period start: 28 November 2023 00:00
Search period end: 08 December 2023 00:00
Orbit: 583 x 628 km, 48.2° (Epoch: 28 November)

Date Brightness Start Highest point End Pass type
(mag) Time Alt. Az. Time Alt. Az. Time Alt. Az.
30 Nov ? 19:32:51 10° SSW 19:33:27 13° SSW 19:33:27 13° SSW visible
01 Dec ? 18:06:11 10° SSE 18:08:29 14° SE 18:08:48 14° SE visible
01 Dec ? 19:44:48 10° SW 19:45:37 15° SW 19:45:37 15° SW visible
02 Dec ? 18:16:57 10° SSW 18:20:29 24° SE 18:20:54 24° SE visible
02 Dec ? 19:57:01 10° WSW 19:57:43 14° WSW 19:57:43 14° WSW visible
03 Dec ? 18:28:30 10° SW 18:32:35 40° SE 18:32:55 40° SE visible
03 Dec ? 20:09:24 10° W 20:09:43 12° W 20:09:43 12° W visible
04 Dec ? 18:40:28 10° SW 18:44:47 65° SSE 18:44:51 65° SE visible
05 Dec ? 17:12:28 10° SSW 17:16:07 26° SE 17:19:45 10° E visible
05 Dec ? 18:52:40 10° WSW 18:56:44 77° W 18:56:44 77° W visible
06 Dec ? 17:24:03 10° SW 17:28:12 43° SSE 17:31:46 13° ENE visible
06 Dec ? 19:05:02 10° W 19:08:33 52° WNW 19:08:33 52° WNW visible
07 Dec ? 17:36:01 10° SW 17:40:21 69° SSE 17:43:33 18° ENE visible
07 Dec ? 19:17:28 10° W 19:20:20 36° WNW 19:20:20 36° WNW visible
